Location: Unspecified
(50.7693°N, 0.0000°E)
Time: 23:32:50
(UTC+00:00)

Transit 4A - Pass Details

Date: 02 July 2019
Orbit: 862 x 982 km, 66.8° (Epoch: 19 July)

Event Time Altitude Azimuth Distance (km) Brightness Sun altitude
Rises 12:26:20 0° 319° (NW) 3,697 10.9 61.9°
Reaches altitude 10° 12:29:15 10° 329° (NNW) 2,744 10.3 61.8°
Maximum altitude 12:34:57 32° 32° (NNE) 1,606 9.3 61.6°
Drops below altitude 10° 12:40:33 10° 94° (E) 2,692 10.4 61.4°
Sets 12:43:22 0° 104° (ESE) 3,618 11.0 61.2°
